TimeEST,TemperatureF,Dew PointF,Humidity,Sea Level PressureIn,VisibilityMPH,Wind Direction,Wind SpeedMPH,Gust SpeedMPH,PrecipitationIn,Events,Conditions,WindDirDegrees,DateUTC
12:35 AM,48.2,30.2,50,30.05,10.0,NW,4.6,-,N/A,,Clear,310,2013-03-02 05:35:00
12:55 AM,46.4,32.0,57,30.05,10.0,WNW,5.8,-,N/A,,Clear,290,2013-03-02 05:55:00
1:15 AM,46.4,32.0,57,30.05,10.0,NW,4.6,-,N/A,,Clear,310,2013-03-02 06:15:00
1:35 AM,46.4,32.0,57,30.05,10.0,WNW,3.5,-,N/A,,Clear,300,2013-03-02 06:35:00
1:55 AM,44.6,32.0,61,30.04,10.0,WNW,3.5,-,N/A,,Clear,290,2013-03-02 06:55:00
2:15 AM,44.6,32.0,61,30.05,10.0,West,4.6,-,N/A,,Clear,280,2013-03-02 07:15:00
2:35 AM,44.6,30.2,57,30.04,10.0,WNW,4.6,-,N/A,,Clear,290,2013-03-02 07:35:00
2:55 AM,44.6,30.2,57,30.04,10.0,WNW,5.8,-,N/A,,Clear,290,2013-03-02 07:55:00
3:15 AM,44.6,30.2,57,30.04,10.0,WNW,4.6,-,N/A,,Clear,300,2013-03-02 08:15:00
3:35 AM,44.6,30.2,57,30.03,10.0,WNW,5.8,-,N/A,,Clear,300,2013-03-02 08:35:00
3:55 AM,44.6,30.2,57,30.03,10.0,NW,6.9,-,N/A,,Clear,310,2013-03-02 08:55:00
4:15 AM,44.6,30.2,57,30.03,10.0,NW,6.9,-,N/A,,Clear,310,2013-03-02 09:15:00
4:35 AM,44.6,30.2,57,30.02,10.0,NNW,5.8,-,N/A,,Clear,340,2013-03-02 09:35:00
4:55 AM,44.6,30.2,57,30.01,10.0,Calm,Calm,-,N/A,,Clear,0,2013-03-02 09:55:00
5:15 AM,42.8,32.0,66,30.02,10.0,Calm,Calm,-,N/A,,Clear,0,2013-03-02 10:15:00
5:35 AM,42.8,32.0,66,30.02,10.0,Calm,Calm,-,N/A,,Clear,0,2013-03-02 10:35:00
5:55 AM,42.8,30.2,61,30.02,10.0,Calm,Calm,-,N/A,,Clear,0,2013-03-02 10:55:00
6:15 AM,42.8,30.2,61,30.03,10.0,Calm,Calm,-,N/A,,Clear,0,2013-03-02 11:15:00
6:50 AM,42.8,32.0,66,30.03,10.0,North,3.5,-,N/A,,Scattered Clouds,360,2013-03-02 11:50:00
7:50 AM,42.8,30.2,61,30.05,10.0,NNW,3.5,-,N/A,,Partly Cloudy,330,2013-03-02 12:50:00
8:50 AM,46.4,28.4,50,30.08,10.0,NW,12.7,-,N/A,,Partly Cloudy,320,2013-03-02 13:50:00
9:50 AM,48.2,28.4,46,30.07,10.0,NNW,9.2,-,N/A,,Clear,330,2013-03-02 14:50:00
10:50 AM,53.6,28.4,38,30.06,10.0,West,10.4,27.6,N/A,,Partly Cloudy,280,2013-03-02 15:50:00
11:50 AM,55.4,23.0,29,30.05,10.0,West,18.4,33.4,N/A,,Partly Cloudy,280,2013-03-02 16:50:00
1:50 PM,55.4,21.2,26,30.00,10.0,West,18.4,34.5,N/A,,Partly Cloudy,280,2013-03-02 18:50:00
2:50 PM,55.4,21.2,26,29.98,10.0,WNW,19.6,29.9,N/A,,Partly Cloudy,300,2013-03-02 19:50:00
3:50 PM,53.6,21.2,28,29.98,10.0,West,17.3,36.8,N/A,,Partly Cloudy,280,2013-03-02 20:50:00
4:50 PM,53.6,26.6,35,29.99,10.0,WNW,15.0,28.8,N/A,,Scattered Clouds,290,2013-03-02 21:50:00
5:50 PM,50.0,26.6,40,30.00,10.0,WNW,11.5,17.3,N/A,,Scattered Clouds,300,2013-03-02 22:50:00
6:50 PM,46.4,26.6,46,30.00,10.0,WNW,6.9,-,N/A,,Scattered Clouds,300,2013-03-02 23:50:00
7:55 PM,46.4,26.6,46,30.02,10.0,WNW,3.5,-,N/A,,Mostly Cloudy,290,2013-03-03 00:55:00
8:15 PM,46.4,26.6,46,30.02,10.0,WNW,3.5,-,N/A,,Overcast,300,2013-03-03 01:15:00
8:35 PM,44.6,26.6,49,30.03,10.0,WNW,3.5,-,N/A,,Scattered Clouds,290,2013-03-03 01:35:00
8:55 PM,44.6,26.6,49,30.03,10.0,WNW,3.5,-,N/A,,Mostly Cloudy,290,2013-03-03 01:55:00
9:15 PM,44.6,26.6,49,30.04,10.0,NNW,8.1,-,N/A,,Overcast,340,2013-03-03 02:15:00
9:35 PM,42.8,26.6,53,30.05,10.0,North,11.5,-,N/A,,Mostly Cloudy,10,2013-03-03 02:35:00
9:55 PM,42.8,26.6,53,30.06,10.0,North,11.5,-,N/A,,Mostly Cloudy,360,2013-03-03 02:55:00
10:15 PM,42.8,26.6,53,30.06,10.0,North,10.4,-,N/A,,Overcast,360,2013-03-03 03:15:00
10:35 PM,42.8,26.6,53,30.05,10.0,North,10.4,-,N/A,,Overcast,360,2013-03-03 03:35:00
10:55 PM,42.8,26.6,53,30.05,10.0,North,10.4,-,N/A,,Overcast,360,2013-03-03 03:55:00
11:15 PM,39.2,24.8,56,30.05,10.0,North,5.8,-,N/A,,Mostly Cloudy,350,2013-03-03 04:15:00
11:35 PM,37.4,24.8,60,30.05,10.0,NNW,5.8,-,N/A,,Scattered Clouds,340,2013-03-03 04:35:00
11:55 PM,37.4,24.8,60,30.05,10.0,NW,3.5,-,N/A,,Mostly Cloudy,310,2013-03-03 04:55:00